Flag for Germany Weather past 2 weeks in Herford, North Rhine-Westphalia, Germany

Now
54 °F

Partly cloudy.


Feels Like: 52 °F
Forecast: 50 / 59 °F
Wind: 7 mph from Southwest

Location: Bueckeburg

Current Time: Sep 4, 2015 at 4:27:21 AM

Latest Report: Sep 4, 2015 at 3:20 AM


Visibility: N/A

Pressure: 29.92 "Hg

Humidity: 88%

Dew point: 50 °F

Location of HerfordLocation

Historic Weather in Herford — Graph

°F

Herford temperature yesterday

Maximum temperature yesterday: 64 °F (at 3:20 PM)
Minimum temperature yesterday: 52 °F (at 4:20 AM)
Average temperature yesterday: 57 °F

Past Weeks' High & Low Weather Summary

 TemperatureHumidityPressure
High91 °F (Aug 31, 4:20 PM)100% (Aug 27, 7:20 PM)30.27 "Hg (Aug 27, 7:20 PM)
Low52 °F (Aug 29, 6:20 AM)30% (Aug 31, 4:20 PM)29.56 "Hg (Aug 24, 6:20 PM)
Average65 °F71%29.96 "Hg
* Reported Aug 20 2:20 AM — Sep 4 2:20 AM, Herford, Weather by CustomWeather, © 2015

Note: Actual official high and low records may vary slightly from our data, if they occured in-between our weather recording intervals... More about our weather records

Advertising

Herford weather history for previous 24 hours

 ConditionsComfort  
Time TempWeatherWind HumidityBarometerVisibility
2:20 AM
Fri, Sep 4
54 °FPassing clouds.6 mph88%29.95 "HgN/A
1:20 AM54 °FPartly cloudy.2 mph88%29.95 "HgN/A
12:20 AM54 °FPassing clouds.3 mph88%29.95 "HgN/A
11:20 PM
Thu, Sep 3
52 °FPassing clouds.6 mph94%29.92 "HgN/A
10:20 PM52 °FPartly cloudy.3 mph94%29.95 "HgN/A
9:20 PM54 °FPassing clouds.2 mph88%29.92 "HgN/A
8:20 PM54 °FScattered clouds.5 mph94%29.92 "HgN/A
7:20 PM57 °FScattered clouds.2 mph77%29.92 "HgN/A
6:20 PM63 °FBroken clouds.9 mph59%29.92 "HgN/A
5:20 PM64 °FPartly sunny.8 mph56%29.89 "HgN/A
4:20 PM64 °FPartly sunny.7 mph52%29.89 "HgN/A
3:20 PM64 °FScattered clouds.2 mph56%29.92 "HgN/A
2:20 PM63 °FPassing clouds.5 mph59%29.92 "HgN/A
1:20 PM63 °FScattered clouds.6 mph64%29.92 "HgN/A
12:20 PM61 °FScattered clouds.6 mph63%29.95 "HgN/A
11:20 AM59 °FScattered clouds.3 mph72%29.95 "HgN/A
10:20 AM57 °FScattered clouds.6 mph82%29.95 "HgN/A
9:20 AM55 °FPartly sunny.3 mph88%29.95 "Hg6 mi
8:20 AM55 °FPartly sunny.2 mph88%29.95 "HgN/A
7:20 AM54 °FPartly cloudy.3 mph94%29.95 "Hg5 mi
6:20 AM54 °FPartly cloudy.2 mph94%29.95 "HgN/A
5:20 AM54 °FPartly cloudy.3 mph94%29.95 "HgN/A
4:20 AM52 °FPartly cloudy.5 mph100%29.95 "HgN/A
Weather by CustomWeather, © 2015

See weather overviewHow to use our weather pages